Meteo pe oră la Al Manqaf

Astăzi, 27 Ianuarie, Miercuri

Timp Temperatura Precipitaţii Vânt Presiune Umiditate
00:00 +18°C° 0 mm 3 m/s 762 mmHg 21%
01:00 +17°C° 0 mm 3 m/s 762 mmHg 22%
02:00 +17°C° 0 mm 3 m/s 762 mmHg 23%
03:00 +17°C° 0 mm 4 m/s 762 mmHg 24%
04:00 +16°C° 0 mm 3 m/s 762 mmHg 25%
05:00 +16°C° 0 mm 3 m/s 762 mmHg 26%
06:00 +14°C° 0 mm 3 m/s 762 mmHg 27%
07:00 +16°C° 0 mm 2 m/s 762 mmHg 25%
08:00 +17°C° 0 mm 2 m/s 762 mmHg 23%
09:00 +18°C° 0 mm 2 m/s 763 mmHg 21%
10:00 +19°C° 0 mm 2 m/s 762 mmHg 20%
11:00 +21°C° 0 mm 1 m/s 762 mmHg 19%
12:00 +22°C° 0 mm 1 m/s 762 mmHg 17%
13:00 +23°C° 0 mm 1 m/s 761 mmHg 17%
14:00 +23°C° 0 mm 1 m/s 761 mmHg 17%
15:00 +23°C° 0 mm 2 m/s 760 mmHg 17%
16:00 +21°C° 0 mm 2 m/s 760 mmHg 19%
17:00 +20°C° 0 mm 2 m/s 760 mmHg 21%
18:00 +19°C° 0 mm 2 m/s 761 mmHg 23%
19:00 +19°C° 0 mm 2 m/s 761 mmHg 24%
20:00 +19°C° 0 mm 2 m/s 761 mmHg 24%
21:00 +18°C° 0 mm 3 m/s 761 mmHg 25%
22:00 +18°C° 0 mm 3 m/s 761 mmHg 27%
23:00 +18°C° 0 mm 3 m/s 761 mmHg 28%

Mâine, 28 Ianuarie, Joi

Timp Temperatura Precipitaţii Vânt Presiune Umiditate
00:00 +18°C° 0 mm 3 m/s 760 mmHg 30%
01:00 +17°C° 0 mm 3 m/s 760 mmHg 32%
02:00 +17°C° 0 mm 3 m/s 760 mmHg 34%
03:00 +17°C° 0 mm 3 m/s 759 mmHg 35%
04:00 +17°C° 0 mm 4 m/s 760 mmHg 38%
05:00 +15°C° 0 mm 4 m/s 760 mmHg 40%
06:00 +15°C° 0 mm 4 m/s 760 mmHg 43%
07:00 +16°C° 0 mm 5 m/s 760 mmHg 41%
08:00 +17°C° 0 mm 5 m/s 760 mmHg 40%
09:00 +19°C° 0 mm 5 m/s 760 mmHg 38%
10:00 +21°C° 0 mm 6 m/s 760 mmHg 34%
11:00 +22°C° 0 mm 7 m/s 760 mmHg 31%
12:00 +24°C° 0 mm 7 m/s 759 mmHg 27%
13:00 +24°C° 0 mm 7 m/s 759 mmHg 27%
14:00 +26°C° 0 mm 7 m/s 758 mmHg 26%
15:00 +26°C° 0 mm 8 m/s 758 mmHg 26%
16:00 +24°C° 0 mm 8 m/s 758 mmHg 32%
17:00 +22°C° 0 mm 8 m/s 758 mmHg 39%
18:00 +21°C° 0 mm 8 m/s 758 mmHg 45%
19:00 +21°C° 0 mm 7 m/s 758 mmHg 47%
20:00 +20°C° 0 mm 7 m/s 758 mmHg 50%
21:00 +20°C° 0 mm 7 m/s 758 mmHg 52%
22:00 +20°C° 0 mm 7 m/s 758 mmHg 53%
23:00 +20°C° 0 mm 7 m/s 758 mmHg 54%

Poimâine, 29 Ianuarie, Vineri

Timp Temperatura Precipitaţii Vânt Presiune Umiditate
00:00 +18°C° 0 mm 7 m/s 758 mmHg 55%
01:00 +19°C° 0 mm 6 m/s 758 mmHg 54%
02:00 +19°C° 0 mm 6 m/s 758 mmHg 52%
03:00 +17°C° 0 mm 5 m/s 758 mmHg 50%
04:00 +17°C° 0 mm 6 m/s 758 mmHg 47%
05:00 +17°C° 0 mm 6 m/s 758 mmHg 44%
06:00 +16°C° 0 mm 6 m/s 758 mmHg 42%
07:00 +17°C° 0 mm 7 m/s 758 mmHg 39%
08:00 +18°C° 0 mm 7 m/s 758 mmHg 36%
09:00 +20°C° 0 mm 8 m/s 758 mmHg 34%
10:00 +22°C° 0 mm 9 m/s 758 mmHg 31%
11:00 +23°C° 0 mm 9 m/s 757 mmHg 28%
12:00 +26°C° 0 mm 10 m/s 757 mmHg 24%
13:00 +27°C° 0 mm 9 m/s 756 mmHg 24%
14:00 +28°C° 0 mm 9 m/s 755 mmHg 23%
15:00 +28°C° 0 mm 9 m/s 755 mmHg 22%
16:00 +27°C° 0 mm 9 m/s 755 mmHg 31%
17:00 +24°C° 0 mm 9 m/s 755 mmHg 39%
18:00 +22°C° 0 mm 9 m/s 755 mmHg 48%
19:00 +22°C° 0 mm 8 m/s 755 mmHg 50%
20:00 +21°C° 0 mm 6 m/s 755 mmHg 51%
21:00 +21°C° 0 mm 5 m/s 755 mmHg 53%
22:00 +21°C° 0 mm 5 m/s 755 mmHg 51%
23:00 +21°C° 0 mm 5 m/s 755 mmHg 50%

30 Ianuarie, Sâmbătă

Timp Temperatura Precipitaţii Vânt Presiune Umiditate
00:00 +20°C° 0 mm 5 m/s 755 mmHg 48%
01:00 +20°C° 0.1 mm 4 m/s 755 mmHg 47%
02:00 +20°C° 0.1 mm 4 m/s 755 mmHg 45%
03:00 +19°C° 0.1 mm 3 m/s 755 mmHg 44%
04:00 +19°C° 0 mm 3 m/s 755 mmHg 44%
05:00 +19°C° 0 mm 3 m/s 755 mmHg 44%
06:00 +19°C° 0 mm 2 m/s 756 mmHg 45%
07:00 +19°C° 0 mm 5 m/s 756 mmHg 40%
08:00 +18°C° 0 mm 7 m/s 757 mmHg 36%
09:00 +18°C° 0 mm 9 m/s 757 mmHg 32%
10:00 +19°C° 0 mm 9 m/s 757 mmHg 31%
11:00 +21°C° 0 mm 10 m/s 758 mmHg 29%
12:00 +21°C° 0 mm 10 m/s 758 mmHg 28%
13:00 +21°C° 0 mm 9 m/s 758 mmHg 28%
14:00 +21°C° 0 mm 9 m/s 757 mmHg 29%
15:00 +21°C° 0 mm 8 m/s 757 mmHg 30%
16:00 +20°C° 0 mm 8 m/s 758 mmHg 32%
17:00 +20°C° 0 mm 7 m/s 758 mmHg 34%
18:00 +18°C° 0 mm 7 m/s 759 mmHg 36%
19:00 +17°C° 0 mm 7 m/s 760 mmHg 38%
20:00 +17°C° 0 mm 6 m/s 760 mmHg 39%
21:00 +16°C° 0 mm 6 m/s 761 mmHg 41%
22:00 +16°C° 0 mm 6 m/s 761 mmHg 43%
23:00 +15°C° 0 mm 5 m/s 762 mmHg 44%

31 Ianuarie, Duminică

Timp Temperatura Precipitaţii Vânt Presiune Umiditate
00:00 +15°C° 0 mm 5 m/s 762 mmHg 45%
01:00 +14°C° 0 mm 5 m/s 762 mmHg 46%
02:00 +14°C° 0 mm 5 m/s 762 mmHg 46%
03:00 +14°C° 0 mm 5 m/s 762 mmHg 46%
04:00 +13°C° 0 mm 5 m/s 762 mmHg 47%
05:00 +13°C° 0 mm 4 m/s 762 mmHg 47%
06:00 +13°C° 0 mm 4 m/s 762 mmHg 47%
07:00 +13°C° 0 mm 4 m/s 762 mmHg 46%
08:00 +14°C° 0 mm 5 m/s 763 mmHg 44%
09:00 +15°C° 0 mm 5 m/s 763 mmHg 43%
10:00 +16°C° 0 mm 5 m/s 763 mmHg 41%
11:00 +17°C° 0 mm 5 m/s 763 mmHg 38%
12:00 +19°C° 0 mm 5 m/s 763 mmHg 36%
13:00 +19°C° 0 mm 5 m/s 763 mmHg 33%
14:00 +20°C° 0 mm 5 m/s 762 mmHg 31%
15:00 +21°C° 0 mm 4 m/s 762 mmHg 29%
16:00 +20°C° 0 mm 4 m/s 762 mmHg 30%
17:00 +20°C° 0 mm 4 m/s 762 mmHg 32%
18:00 +19°C° 0 mm 4 m/s 762 mmHg 33%
19:00 +19°C° 0 mm 4 m/s 763 mmHg 34%
20:00 +18°C° 0 mm 4 m/s 763 mmHg 36%
21:00 +18°C° 0 mm 4 m/s 763 mmHg 38%
22:00 +17°C° 0 mm 4 m/s 763 mmHg 39%
23:00 +16°C° 0 mm 5 m/s 763 mmHg 40%

1 Februarie, Luni

Timp Temperatura Precipitaţii Vânt Presiune Umiditate
00:00 +16°C° 0 mm 5 m/s 763 mmHg 40%
01:00 +15°C° 0 mm 5 m/s 763 mmHg 41%
02:00 +15°C° 0 mm 5 m/s 763 mmHg 42%
03:00 +15°C° 0 mm 5 m/s 763 mmHg 43%
04:00 +14°C° 0 mm 5 m/s 763 mmHg 44%
05:00 +14°C° 0 mm 4 m/s 764 mmHg 45%
06:00 +14°C° 0 mm 4 m/s 764 mmHg 46%
07:00 +14°C° 0 mm 4 m/s 764 mmHg 44%
08:00 +15°C° 0 mm 4 m/s 764 mmHg 41%
09:00 +17°C° 0 mm 4 m/s 765 mmHg 39%
10:00 +18°C° 0 mm 4 m/s 764 mmHg 36%
11:00 +19°C° 0 mm 4 m/s 764 mmHg 32%
12:00 +20°C° 0 mm 4 m/s 764 mmHg 29%
13:00 +21°C° 0 mm 4 m/s 763 mmHg 27%
14:00 +22°C° 0 mm 4 m/s 763 mmHg 25%
15:00 +22°C° 0 mm 4 m/s 762 mmHg 23%
16:00 +22°C° 0 mm 4 m/s 762 mmHg 25%
17:00 +21°C° 0 mm 4 m/s 762 mmHg 27%
18:00 +21°C° 0 mm 4 m/s 762 mmHg 28%
19:00 +20°C° 0 mm 4 m/s 762 mmHg 30%
20:00 +20°C° 0 mm 4 m/s 763 mmHg 31%
21:00 +19°C° 0 mm 4 m/s 763 mmHg 33%
22:00 +19°C° 0 mm 4 m/s 763 mmHg 34%
23:00 +18°C° 0 mm 4 m/s 763 mmHg 35%
Arată mai mult

Formular de consimțământ

Meteoprog și furnizorii noștri de servicii pot stoca și accesa date personale, precum cookies, identificatori de dispozitiv sau alte tehnologii similare pe dispozitivul dumneavoastră și procesa astfel de date pentru a personaliza conținutul și reclamele, dar și pentru a oferi caracteristici de social media și pentru a analiza traficul.

  • Stocarea și/sau accesarea informațiilor pe dispozitivul dumneavoastră

    Cookies, identificatori de dispozitiv sau alte informații pot fi stocate sau accesate pe dispozitiv în scopurile indicate mai sus.

  • Reclame și conținut personalizat, evaluarea reclamelor și a conținutului, informații despre audiențe și dezvoltarea produselor

    Reclamele și conținutul pot fi personalizate pe baza unui profil. Pot fi adăugate date suplimentare pentru a personaliza mai bine reclamele și conținutul. Performanța reclamelor și conținutului poate fi măsurată. Pot fi obținute informații despre utilizatorii care au văzut reclamele și conținutul. Aceste date pot fi utilizate pentru a dezvolta sau îmbunătăți experiența utilizatorilor, sistemele și software-ul.

Dând clic pe ‘Sunt de acord’, permiteți utilizarea cookie-urilor menționate, a identificatorilor de dispozitiv, balizelor web sau altor tehnologii similare. Setările pot fi modificate din browser-ul dispozitivului dumneavoastră.

În anumite scopuri, interesele legitime pot prima asupra consimțământului. Puteți citi mai multe informații în acest sens în Politica privind Confidențialitatea Datelor și Cookie.